Weather History for TJSJ - November, 2010

Change the Weather History Date:

Wednesday, November 3, 2010

  Actual Average Record
Temperature  
Mean Temperature 80 °F 82 °F  
Max Temperature 85 °F 87 °F 92 °F (1990)
Min Temperature 75 °F 76 °F 70 °F (1917)
Degree Days  
Heating Degree Days 0 0  
Month to date heating degree days 0 0  
Since 1 July heating degree days 0 0  
Cooling Degree Days 15 17  
Month to date cooling degree days 51 51  
Year to date cooling degree days 5212 5010  
Growing Degree Days 30 (Base 50)    
Moisture  
Dew Point 75 °F    
Average Humidity 87    
Maximum Humidity 100    
Minimum Humidity 74    
Precipitation  
Precipitation 1.55 in 0.22 in 1.69 in (2014)
Month to date precipitation 1.55 0.67  
Year to date precipitation 75.63 45.65  
Snow  
Snow 0.00 in - - ()
Month to date snowfall 0.0  
Since 1 July snowfall 0.0  
Since 1 September snowfall 0.0  
Snow Depth 0.00 in    
Sea Level Pressure  
Sea Level Pressure 29.85 in    
Wind  
Wind Speed 7 mph (ESE)    
Max Wind Speed 28 mph    
Max Gust Speed 32 mph    
Visibility 9 miles    
Events Fog , Rain    
T = Trace of Precipitation, MM = Missing Value Source: NWS Daily Summary

Daily Weather History Graph

Daily Weather History Graph

Search for Another Location

Airport or City:

Trip Planner

Search our weather history database for the weather conditions in past years. The results will help you decide how hot, cold, wet, or windy it might be!

Date:

Astronomy

Nov. 03, 2010 Rise Set
Actual Time 6:24 AM AST 5:50 PM AST
Civil Twilight 6:02 AM AST 6:12 PM AST
Nautical Twilight 5:36 AM AST 6:38 PM AST
Astronomical Twilight 5:10 AM AST 7:04 PM AST
Moon 3:38 AM AST (11/3) 3:44 PM AST (11/3)
Length of Visible Light 12h 10m
Length of Day
11h 25m
Waning Crescent, 9% of the Moon is Illuminated
Nov 3
Waning Crescent
Nov 6
New
Nov 13
First Quarter
Nov 21
Full
Nov 28
Last Quarter

Hourly Weather History & Observations

Time (AST) Temp. Heat Index Dew Point Humidity Pressure Visibility Wind Dir Wind Speed Gust Speed Precip Events Conditions
12:56 AM 80.1 °F 84.5 °F 73.9 °F 81% 29.87 in 10.0 mi SE 3.5 mph - N/A   Scattered Clouds
1:56 AM 80.1 °F 84.2 °F 73.0 °F 79% 29.85 in 10.0 mi ESE 3.5 mph - N/A   Scattered Clouds
2:56 AM 78.1 °F - 72.0 °F 81% 29.83 in 10.0 mi ESE 4.6 mph - 0.00 in   Scattered Clouds
3:56 AM 78.1 °F - 71.1 °F 79% 29.83 in 10.0 mi ESE 6.9 mph - N/A   Mostly Cloudy
4:56 AM 78.1 °F - 73.9 °F 87% 29.83 in 10.0 mi ESE 8.1 mph - 0.01 in Rain Light Rain
5:56 AM 78.1 °F - 73.9 °F 87% 29.85 in 10.0 mi SSE 3.5 mph - 0.00 in   Mostly Cloudy
6:32 AM 75.2 °F - 73.4 °F 94% 29.88 in 2.0 mi East 13.8 mph 19.6 mph 0.13 in Rain Heavy Rain
6:43 AM 75.2 °F - 73.4 °F 94% 29.87 in 5.0 mi SE 10.4 mph 21.9 mph 0.70 in Rain Heavy Rain
6:56 AM 77.0 °F - 75.2 °F 94% 29.87 in 10.0 mi SE 4.6 mph - 0.87 in Rain Light Rain
7:39 AM 77.0 °F - 77.0 °F 100% 29.90 in 0.5 mi ENE 25.3 mph 32.2 mph 0.08 in Fog , Rain Light Rain
7:46 AM 77.0 °F - 77.0 °F 100% 29.90 in 6.0 mi East 11.5 mph 32.2 mph 0.39 in Rain Heavy Rain
7:56 AM 75.9 °F - 75.2 °F 98% 29.90 in 8.0 mi East 8.1 mph - 0.49 in Rain Light Rain
8:56 AM 79.0 °F - 77.0 °F 94% 29.90 in 10.0 mi East 8.1 mph - 0.01 in   Mostly Cloudy
9:56 AM 79.0 °F - 77.0 °F 94% 29.91 in 10.0 mi ESE 4.6 mph - 0.16 in   Mostly Cloudy
10:56 AM 82.0 °F 90.2 °F 77.0 °F 85% 29.89 in 10.0 mi East 9.2 mph - 0.00 in   Mostly Cloudy
11:56 AM 84.0 °F 95.6 °F 78.8 °F 84% 29.86 in 10.0 mi East 13.8 mph 24.2 mph N/A   Scattered Clouds
12:56 PM 82.9 °F 91.8 °F 77.0 °F 82% 29.84 in 10.0 mi East 12.7 mph - N/A   Mostly Cloudy
1:56 PM 82.9 °F 93.4 °F 78.8 °F 87% 29.81 in 10.0 mi ENE 12.7 mph - 0.00 in   Mostly Cloudy
2:56 PM 84.9 °F 94.1 °F 75.9 °F 74% 29.79 in 10.0 mi ENE 16.1 mph - N/A   Mostly Cloudy
3:56 PM 82.0 °F 87.9 °F 73.9 °F 76% 29.78 in 10.0 mi East 13.8 mph - N/A   Mostly Cloudy
4:56 PM 82.0 °F 89.4 °F 75.9 °F 82% 29.80 in 10.0 mi East 12.7 mph - N/A   Mostly Cloudy
5:56 PM 80.1 °F 84.5 °F 73.9 °F 81% 29.81 in 10.0 mi East 5.8 mph - 0.01 in   Scattered Clouds
6:56 PM 79.0 °F - 75.0 °F 88% 29.83 in 10.0 mi East 6.9 mph - N/A   Scattered Clouds
7:56 PM 78.1 °F - 72.0 °F 81% 29.85 in 10.0 mi ESE 6.9 mph - N/A   Scattered Clouds
8:56 PM 79.0 °F - 73.9 °F 84% 29.86 in 10.0 mi Calm Calm - N/A   Scattered Clouds
9:56 PM 80.1 °F 84.5 °F 73.9 °F 81% 29.86 in 10.0 mi Calm Calm - N/A   Scattered Clouds
10:56 PM 79.0 °F - 73.0 °F 82% 29.86 in 10.0 mi SE 3.5 mph - N/A   Scattered Clouds
11:56 PM 79.0 °F - 73.0 °F 82% 29.85 in 10.0 mi SE 3.5 mph - N/A   Scattered Clouds